Dauntless Aviation
Airports Europe United Kingdom
EGLC
LCY

London City Airport

London, UNITED KINGDOM

Airport Info
Suggest Updated Information for this Airport

Location

Latitude / Longitude: 51°30'19"N / 0°3'19"E
  51°30.318'N / 0°3.318'E
  51.5053 / 0.0553

Nearby radio navigation aids

LCY CITY NDB on field.

Runway Information

Runway 10 /28

Dimensions: 4948 x 98 ft.
Surface: ASP
 
Runway 10
Runway 28
Latitude: 51.505528 51.504922
Longitude: 0.045753 0.064953
Elevation: 16 ft. 16 ft.
Runway true heading: 91.1 271.1
 

Instrument Procedures

  Aerodrome Chart
  Aircraft Parking/Docking Chart
  Control Zone and Control Area Chart

STARs (Standard Terminal Arrivals)

  Standard Instrument Arrival Coding Tables Rwy 09/27 JACKO 1L/ 1M
  Standard Instrument Arrival Coding Tables Rwy 09/27 GODLU 1G/ 1H
  Standard Instrument Arrival Coding Tables Rwy 09/27 GODLU 1J/ 1K/ 1L
  RNAV1 (DME/DME or GNSS) Transition Arrival Chart - Instrument Rwy 27 LAVNO 1G 1J
  RNAV1 (DME/DME or GNSS) Transition Arrival Chart - Instrument Rwy 09 ODLEG 1G 1J
  RNAV5 (VOR/DME/ DME/DME or GNSS) STAR - Instrument Rwy 09/27 JACKO 1A 1B 1D
  RNAV5 (VOR/DME/ DME/DME or GNSS) STAR - Instrument Rwy 09/27 GODLU 1A 1C 1D 1F
  RNAV5 (VOR/DME/ DME/DME or GNSS) STAR - Instrument Rwy 09/27 JACKO 1H
  RNAV5 (VOR/DME/ DME/DME or GNSS) STAR - Instrument Rwy 09/27 JACKO 1L 1M
  RNAV5 (VOR/DME/ DME/DME or GNSS) STAR - Instrument Rwy 09/27 GODLU 1G 1H
  RNAV5 (VOR/DME/ DME/DME or GNSS) STAR - Instrument Rwy 09/27 GODLU 1J 1K 1L
  Standard Instrument Arrival Coding Tables Rwy 09/27 JACKO 1A/ 1B/ 1D
  Standard Instrument Arrival Coding Tables Rwy 09/27 GODLU 1A/ 1C/ 1D/ 1F
  Standard Instrument Arrival Coding Tables Rwy 09/27 JACKO 1H

IAPs (Instrument Approach Procedures)

  ILS (5.5°GP) /DME/NDB (L) Rwy 09 (Aircraft CAT A/B/C)
  LOC/DME/NDB (L) Rwy 09
  LOC/DME/NDB (L) Rwy 27 (Aircraft CAT A/B/C)
  Visual Approach Profile Rwy 27
  Visual Approach Profile Rwy 09
  ILS (5.5°GP) /DME/NDB (L) Rwy 27 (Aircraft CAT A/B/C)
  Aerodrome Information (Textual)
  Transition Coding Tables Rwy 27 LAVNO 1G/ 1J
  Transition Coding Tables Rwy 09 ODLEG 1G 1J
  RNAV Hold Coding Tables GODLU/ OKVAP/ JACKO/ ROPMU
  ATC Surveillance Minimum Altitude Chart

Departure Procedures

  Standard Instrument Departure Coding Tables Rwy 09 BPK 1H/ CPT 1H
  Standard Instrument Departure Coding Tables Rwy 09 CLN 1H/ Rwy 27 CLN 1A
  SID - Instrument (SID) Rwy 09/27 DVR 5T 5U LYD 5T 5U
  SID - Instrument (SID) Rwy 09/27 CLN 7T 7U
  SID - Instrument (SID) Rwy 09/27 BPK 5T 5U CPT 6T 6U
  RNAV1 (DME/DME or GNSS) SID - Instrument (SID) Rwy 27 BPK 1A CPT 1A
  RNAV1 (DME/DME or GNSS) SID - Instrument (SID) Rwy 09 BPK 1H CPT 1H
  RNAV1 (DME/DME or GNSS) SID - Instrument (SID) Rwy 09/27 CLN 1A 1H
  Standard Instrument Departure Coding Tables Rwy 27 BPK 1A/ CPT 1A
  RNAV1 (DME/DME or GNSS) SID - Instrument (SID) Rwy 09/27 EKNIV 1A 1H
  Standard Instrument Departure Coding Tables Rwy 09 EKNIV 1H/ Rwy 27 EKNIV 1A
Satellite photo at:
Airport distance calculator
From:
Weather Reports

METAR

EGLC

EGLC 230750Z AUTO 14004KT 090V220 9999 NCD 21/17 Q1012
EGKB
11.4nm S
EGKB 230750Z 18011KT CAVOK 20/18 Q1012
EGWU
17.8nm W
EGWU 230738Z 20003KT 7000 HZ BKN014 BKN060 19/17 Q1012 GRN TEMPO 4000 -DZ GRN
EGLL
18.9nm SW
EGLL 230750Z AUTO 23004KT 200V270 7000 OVC012 19/17 Q1012 TEMPO BKN008
EGSS
23.5nm N
EGSS 230750Z AUTO 16006KT 130V190 9000 NCD 19/17 Q1012
EGKK
23.8nm S
EGKK 230750Z VRB04KT 9999 FEW010 20/18 Q1012

TAF

EGLC
TAF EGLC 230457Z 2306/2315 12007KT 2500 HZ FEW040 BECMG 2306/2309 9999 NSW BECMG 2309/2312 27010KT PROB30 TEMPO 2309/2312 BKN014
EGKB
11.4nm S
TAF EGKB 230557Z 2306/2315 15009KT 9999 FEW040 PROB30 2306/2309 8000 BECMG 2308/2311 27010KT TEMPO 2309/2312 BKN010 PROB40 TEMPO 2309/2311 9000 -RA BKN006
EGWU
17.8nm W
TAF EGWU 230444Z 2306/2324 23008KT 3500 HZ FEW045 BECMG 2306/2309 6000 BKN010 PROB40 TEMPO 2308/2310 4000 -DZ SCT006 BKN008 BECMG 2310/2313 9999 NSW SCT035
EGLL
18.9nm SW
TAF EGLL 230455Z 2306/2412 14004KT 3000 BR SCT015 BECMG 2306/2309 27010KT 7000 NSW TEMPO 2307/2312 BKN008 BECMG 2309/2311 9999
EGSS
23.5nm N
TAF EGSS 230452Z 2306/2412 13007KT 4500 HZ FEW040 BECMG 2306/2309 9999 NSW BECMG 2310/2313 27010KT TEMPO 2310/2314 BKN012 PROB30 TEMPO 2311/2313 9000 -RA BKN009 PROB30 2401/2406 7000
EGKK
23.8nm S
TAF EGKK 230451Z 2306/2412 07004KT 2000 BR FEW030 BECMG 2307/2309 9999 NSW PROB30 TEMPO 2307/2312 BKN014 BECMG 2309/2312 27010KT
Safelog

 

Dauntless Aviation

© 2007-2017 Dauntless Aviation, all rights reserved
Information provided via PilotNav comes from a variety of official and unofficial data sources. As errors are possible, do not use PilotNav for primary flight planning purposes. Verify any information that you receive via PilotNav with current and canonical charts and other official documents. The material in this database is subject to database copyrights held by Dauntless Aviation and may not be copied without the express permission of Dauntless Aviation - licenses for use of part of all of this data are available for purchase; enquire via the Dauntless Aviation helpdesk. A number of mechanisms and markers exist in the database to protect against and identify infringement / copyright. Automated queries against this website are stictly prohibited, and all activity is logged and analyzed.